When you browse on this site, cookies collect data to enhance your experience and personalize the content and advertising you see.
Visit our Privacy Policy to learn more. By continuing to use the site, you agree to this use of cookies and data.
  • In Switzerland
  • List of Countries
  • For 7 days
  • Water Temperature
  • Weather Map
  • Weather Widgets
  • user-avatar
    Login

    Hourly Weather Skadino

    Today, 24 August, Saturday

    Time Temperature Precipitation Wind Pressure Humidity
    00:00 +17°C° 0 mm 4 mps 761 mmHg 80%
    01:00 +15°C° 0 mm 4 mps 761 mmHg 81%
    02:00 +15°C° 0 mm 4 mps 761 mmHg 81%
    03:00 +15°C° 0 mm 4 mps 761 mmHg 78%
    04:00 +17°C° 0 mm 4 mps 761 mmHg 75%
    05:00 +16°C° 0 mm 5 mps 761 mmHg 72%
    06:00 +17°C° 0 mm 4 mps 760 mmHg 73%
    07:00 +18°C° 0 mm 4 mps 760 mmHg 74%
    08:00 +18°C° 0 mm 4 mps 760 mmHg 75%
    09:00 +19°C° 0 mm 4 mps 760 mmHg 73%
    10:00 +20°C° 0 mm 4 mps 761 mmHg 70%
    11:00 +22°C° 0 mm 4 mps 761 mmHg 68%
    12:00 +22°C° 0.2 mm 4 mps 761 mmHg 66%
    13:00 +22°C° 0.2 mm 4 mps 761 mmHg 65%
    14:00 +22°C° 0.2 mm 3 mps 761 mmHg 63%
    15:00 +22°C° 0 mm 3 mps 761 mmHg 63%
    16:00 +24°C° 0 mm 2 mps 761 mmHg 63%
    17:00 +24°C° 0 mm 2 mps 761 mmHg 63%
    18:00 +21°C° 0 mm 2 mps 761 mmHg 67%
    19:00 +19°C° 0 mm 2 mps 762 mmHg 71%
    20:00 +17°C° 0 mm 2 mps 762 mmHg 75%
    21:00 +16°C° 0 mm 2 mps 762 mmHg 77%
    22:00 +15°C° 0 mm 2 mps 763 mmHg 80%
    23:00 +14°C° 0 mm 2 mps 763 mmHg 82%

    Tomorrow, 25 August, Sunday

    Time Temperature Precipitation Wind Pressure Humidity
    00:00 +13°C° 0 mm 1 mps 763 mmHg 85%
    01:00 +12°C° 0 mm 1 mps 764 mmHg 88%
    02:00 +10°C° 0 mm 0 mps 764 mmHg 91%
    03:00 +10°C° 0 mm 0 mps 764 mmHg 92%
    04:00 +10°C° 0 mm 0 mps 764 mmHg 92%
    05:00 +9°C° 0 mm 0 mps 764 mmHg 92%
    06:00 +11°C° 0 mm 0 mps 765 mmHg 86%
    07:00 +13°C° 0 mm 0 mps 765 mmHg 80%
    08:00 +15°C° 0 mm 0 mps 765 mmHg 74%
    09:00 +17°C° 0 mm 0 mps 765 mmHg 69%
    10:00 +18°C° 0 mm 0 mps 765 mmHg 64%
    11:00 +20°C° 0 mm 0 mps 765 mmHg 59%
    12:00 +20°C° 0 mm 0 mps 765 mmHg 57%
    13:00 +21°C° 0 mm 0 mps 765 mmHg 54%
    14:00 +22°C° 0 mm 0 mps 765 mmHg 52%
    15:00 +21°C° 0 mm 0 mps 764 mmHg 54%
    16:00 +23°C° 0 mm 1 mps 764 mmHg 56%
    17:00 +22°C° 0 mm 1 mps 764 mmHg 59%
    18:00 +20°C° 0 mm 1 mps 764 mmHg 65%
    19:00 +18°C° 0 mm 1 mps 764 mmHg 70%
    20:00 +15°C° 0 mm 1 mps 764 mmHg 76%
    21:00 +15°C° 0 mm 1 mps 764 mmHg 78%
    22:00 +14°C° 0 mm 1 mps 764 mmHg 80%
    23:00 +14°C° 0 mm 1 mps 765 mmHg 82%

    Day after tomorrow, 26 August, Monday

    Time Temperature Precipitation Wind Pressure Humidity
    00:00 +13°C° 0 mm 1 mps 765 mmHg 84%
    01:00 +13°C° 0 mm 1 mps 764 mmHg 86%
    02:00 +12°C° 0 mm 1 mps 764 mmHg 88%
    03:00 +12°C° 0 mm 1 mps 764 mmHg 89%
    04:00 +12°C° 0 mm 1 mps 764 mmHg 89%
    05:00 +10°C° 0 mm 2 mps 764 mmHg 89%
    06:00 +13°C° 0 mm 2 mps 764 mmHg 84%
    07:00 +15°C° 0 mm 2 mps 764 mmHg 79%
    08:00 +17°C° 0 mm 2 mps 764 mmHg 73%
    09:00 +19°C° 0 mm 2 mps 763 mmHg 68%
    10:00 +20°C° 0 mm 2 mps 763 mmHg 63%
    11:00 +23°C° 0 mm 2 mps 763 mmHg 58%
    12:00 +24°C° 0 mm 2 mps 763 mmHg 57%
    13:00 +24°C° 0 mm 3 mps 762 mmHg 56%
    14:00 +25°C° 0 mm 3 mps 762 mmHg 55%
    15:00 +25°C° 0 mm 3 mps 762 mmHg 59%
    16:00 +25°C° 0 mm 2 mps 761 mmHg 63%
    17:00 +25°C° 0 mm 2 mps 761 mmHg 68%
    18:00 +23°C° 0 mm 2 mps 761 mmHg 73%
    19:00 +20°C° 0 mm 2 mps 761 mmHg 79%
    20:00 +19°C° 0 mm 2 mps 761 mmHg 84%
    21:00 +18°C° 0 mm 2 mps 761 mmHg 86%
    22:00 +17°C° 0 mm 2 mps 761 mmHg 89%
    23:00 +16°C° 0 mm 2 mps 761 mmHg 91%

    27 August, Tuesday

    Time Temperature Precipitation Wind Pressure Humidity
    00:00 +16°C° 0 mm 2 mps 761 mmHg 90%
    01:00 +15°C° 0 mm 2 mps 761 mmHg 88%
    02:00 +14°C° 0 mm 2 mps 761 mmHg 87%
    03:00 +14°C° 0 mm 2 mps 761 mmHg 90%
    04:00 +14°C° 0 mm 2 mps 761 mmHg 93%
    05:00 +13°C° 0 mm 2 mps 761 mmHg 95%
    06:00 +15°C° 0 mm 2 mps 761 mmHg 92%
    07:00 +16°C° 0 mm 2 mps 761 mmHg 88%
    08:00 +17°C° 0 mm 2 mps 761 mmHg 84%
    09:00 +19°C° 0 mm 2 mps 762 mmHg 75%
    10:00 +20°C° 0 mm 3 mps 762 mmHg 65%
    11:00 +22°C° 0 mm 3 mps 762 mmHg 55%
    12:00 +22°C° 0 mm 3 mps 762 mmHg 53%
    13:00 +22°C° 0 mm 3 mps 762 mmHg 51%
    14:00 +22°C° 0 mm 3 mps 762 mmHg 48%
    15:00 +22°C° 0 mm 3 mps 762 mmHg 52%
    16:00 +21°C° 0 mm 3 mps 762 mmHg 56%
    17:00 +21°C° 0 mm 3 mps 762 mmHg 60%
    18:00 +19°C° 0 mm 2 mps 762 mmHg 66%
    19:00 +17°C° 0 mm 2 mps 762 mmHg 73%
    20:00 +15°C° 0 mm 2 mps 762 mmHg 79%
    21:00 +15°C° 0 mm 2 mps 763 mmHg 81%
    22:00 +14°C° 0 mm 2 mps 763 mmHg 83%
    23:00 +13°C° 0 mm 1 mps 764 mmHg 85%

    28 August, Wednesday

    Time Temperature Precipitation Wind Pressure Humidity
    00:00 +13°C° 0 mm 1 mps 764 mmHg 86%
    01:00 +12°C° 0 mm 1 mps 764 mmHg 86%
    02:00 +12°C° 0 mm 1 mps 764 mmHg 87%
    03:00 +11°C° 0 mm 1 mps 764 mmHg 86%
    04:00 +11°C° 0 mm 1 mps 764 mmHg 86%
    05:00 +11°C° 0 mm 1 mps 764 mmHg 86%
    06:00 +12°C° 0 mm 1 mps 764 mmHg 80%
    07:00 +14°C° 0 mm 1 mps 764 mmHg 74%
    08:00 +16°C° 0 mm 1 mps 764 mmHg 68%
    09:00 +18°C° 0 mm 1 mps 764 mmHg 62%
    10:00 +20°C° 0 mm 1 mps 765 mmHg 57%
    11:00 +20°C° 0 mm 2 mps 765 mmHg 51%
    12:00 +21°C° 0 mm 2 mps 764 mmHg 50%
    13:00 +21°C° 0 mm 2 mps 764 mmHg 48%
    14:00 +23°C° 0 mm 2 mps 764 mmHg 47%
    15:00 +23°C° 0 mm 2 mps 764 mmHg 51%
    16:00 +21°C° 0 mm 2 mps 763 mmHg 54%
    17:00 +22°C° 0 mm 1 mps 763 mmHg 58%
    18:00 +19°C° 0 mm 2 mps 763 mmHg 64%
    19:00 +17°C° 0 mm 2 mps 763 mmHg 70%
    20:00 +15°C° 0 mm 2 mps 763 mmHg 75%
    21:00 +15°C° 0 mm 2 mps 763 mmHg 78%
    22:00 +14°C° 0 mm 2 mps 763 mmHg 81%
    23:00 +13°C° 0 mm 2 mps 764 mmHg 84%

    29 August, Thursday

    Time Temperature Precipitation Wind Pressure Humidity
    00:00 +13°C° 0 mm 2 mps 764 mmHg 85%
    01:00 +12°C° 0 mm 2 mps 764 mmHg 87%
    02:00 +12°C° 0 mm 2 mps 764 mmHg 88%
    03:00 +12°C° 0 mm 1 mps 764 mmHg 89%
    04:00 +12°C° 0 mm 1 mps 764 mmHg 91%
    05:00 +11°C° 0 mm 1 mps 764 mmHg 92%
    06:00 +13°C° 0 mm 2 mps 764 mmHg 86%
    07:00 +14°C° 0 mm 2 mps 764 mmHg 81%
    08:00 +16°C° 0 mm 2 mps 763 mmHg 75%
    09:00 +17°C° 0 mm 2 mps 763 mmHg 68%
    10:00 +19°C° 0 mm 2 mps 763 mmHg 62%
    11:00 +21°C° 0 mm 2 mps 763 mmHg 55%
    12:00 +21°C° 0 mm 2 mps 763 mmHg 53%
    13:00 +23°C° 0 mm 2 mps 763 mmHg 51%
    14:00 +23°C° 0 mm 2 mps 762 mmHg 49%
    15:00 +23°C° 0 mm 2 mps 762 mmHg 52%
    16:00 +23°C° 0 mm 2 mps 762 mmHg 56%
    17:00 +23°C° 0 mm 1 mps 762 mmHg 60%
    18:00 +21°C° 0 mm 1 mps 762 mmHg 66%
    19:00 +19°C° 0 mm 1 mps 762 mmHg 71%
    20:00 +16°C° 0 mm 1 mps 762 mmHg 76%
    21:00 +15°C° 0 mm 1 mps 762 mmHg 79%
    22:00 +14°C° 0 mm 1 mps 762 mmHg 82%
    23:00 +13°C° 0 mm 1 mps 762 mmHg 85%
    Show more